Blackwell, OK

9:53 PM CDT on September 20, 2017 (GMT -0500)
Blackwell

Weather History for KBKN - October, 2012

Change the Weather History Date:

Friday, October 26, 2012

  Actual Average (KPNC) Record (KPNC)
Temperature  
Mean Temperature 40 °F -  
Max Temperature 50 °F 71 °F 92 °F (1950)
Min Temperature 28 °F 48 °F 25 °F (1957)
Degree Days  
Heating Degree Days 25    
Moisture  
Dew Point 25 °F    
Average Humidity 58    
Maximum Humidity 81    
Minimum Humidity 32    
Precipitation  
Precipitation 0.00 in - - ()
Sea Level Pressure  
Sea Level Pressure 30.39 in    
Wind  
Wind Speed 14 mph (North)    
Max Wind Speed 26 mph    
Max Gust Speed 34 mph    
Visibility 10 miles    
Events      
Averages and records for this station are not official NWS values.
T = Trace of Precipitation, MM = Missing Value Source: NWS Daily Summary

Daily Weather History Graph

Daily Weather History Graph

Search for Another Location

Airport or City:

Trip Planner

Search our weather history database for the weather conditions in past years. The results will help you decide how hot, cold, wet, or windy it might be!

Date:

Astronomy

Oct. 26, 2012 Rise Set
Actual Time 7:47 AM CDT 6:38 PM CDT
Civil Twilight 7:21 AM CDT 7:04 PM CDT
Nautical Twilight 6:50 AM CDT 7:35 PM CDT
Astronomical Twilight 6:20 AM CDT 8:05 PM CDT
Moon 4:51 PM CDT (10/26) 4:49 AM CDT (10/26)
Length of Visible Light 11h 43m
Length of Day
10h 50m
Waxing Gibbous, 91% of the Moon is Illuminated
Oct 26
Waxing Gibbous
Oct 29
Full
Nov 6
Last Quarter
Nov 13
New
Nov 20
First Quarter

Hourly Weather History & Observations

Time (CDT) Temp. Windchill Dew Point Humidity Pressure Visibility Wind Dir Wind Speed Gust Speed Precip Events Conditions
12:15 AM 39.2 °F 32.5 °F 32.0 °F 75% 30.28 in 10.0 mi North 10.4 mph - N/A   Clear
12:55 AM 39.2 °F 32.5 °F 32.0 °F 75% 30.29 in 10.0 mi North 10.4 mph - N/A   Clear
1:35 AM 37.4 °F 29.3 °F 32.0 °F 81% 30.29 in 10.0 mi North 12.7 mph - N/A   Clear
1:55 AM 37.4 °F 29.8 °F 30.2 °F 75% 30.28 in 10.0 mi NNE 11.5 mph - N/A   Clear
2:15 AM 37.4 °F 28.9 °F 30.2 °F 75% 30.30 in 10.0 mi North 13.8 mph - N/A   Clear
2:35 AM 37.4 °F 28.9 °F 30.2 °F 75% 30.31 in 10.0 mi North 13.8 mph - N/A   Clear
2:55 AM 35.6 °F 26.6 °F 30.2 °F 81% 30.31 in 10.0 mi North 13.8 mph - N/A   Clear
3:15 AM 35.6 °F 27.1 °F 28.4 °F 75% 30.31 in 10.0 mi North 12.7 mph - N/A   Clear
3:35 AM 35.6 °F 26.2 °F 28.4 °F 75% 30.31 in 10.0 mi North 15.0 mph - N/A   Scattered Clouds
3:55 AM 35.6 °F 27.5 °F 28.4 °F 75% 30.30 in 10.0 mi North 11.5 mph - N/A   Partly Cloudy
4:15 AM 33.8 °F 25.3 °F 28.4 °F 81% 30.31 in 10.0 mi NNE 11.5 mph - N/A   Mostly Cloudy
4:35 AM 33.8 °F 26.4 °F 28.4 °F 81% 30.31 in 10.0 mi NNE 9.2 mph - N/A   Overcast
4:55 AM 33.8 °F 26.4 °F 28.4 °F 81% 30.32 in 10.0 mi NNE 9.2 mph - N/A   Overcast
5:15 AM 33.8 °F 25.8 °F 28.4 °F 81% 30.33 in 10.0 mi NNE 10.4 mph - N/A   Overcast
5:35 AM 32.0 °F 22.5 °F 26.6 °F 80% 30.34 in 10.0 mi NNE 12.7 mph - N/A   Overcast
5:55 AM 32.0 °F 23.6 °F 26.6 °F 80% 30.34 in 10.0 mi NNE 10.4 mph - N/A   Overcast
6:15 AM 32.0 °F 23.6 °F 26.6 °F 80% 30.35 in 10.0 mi NNE 10.4 mph - N/A   Overcast
6:35 AM 33.8 °F 24.8 °F 28.4 °F 81% 30.37 in 10.0 mi North 12.7 mph 18.4 mph N/A   Overcast
6:55 AM 35.6 °F 26.6 °F 26.6 °F 70% 30.38 in 10.0 mi North 13.8 mph - N/A   Overcast
7:15 AM 35.6 °F 24.8 °F 26.6 °F 70% 30.38 in 10.0 mi North 19.6 mph 25.3 mph N/A   Overcast
7:35 AM 35.6 °F 26.2 °F 26.6 °F 70% 30.38 in 10.0 mi NNE 15.0 mph - N/A   Overcast
8:15 AM 37.4 °F 26.9 °F 26.6 °F 65% 30.38 in 10.0 mi NNE 20.7 mph - N/A   Mostly Cloudy
8:55 AM 37.4 °F 28.5 °F 26.6 °F 65% 30.42 in 10.0 mi NNE 15.0 mph - N/A   Overcast
9:15 AM 37.4 °F 28.5 °F 26.6 °F 65% 30.44 in 10.0 mi NNE 15.0 mph 25.3 mph N/A   Overcast
9:55 AM 39.2 °F 28.7 °F 24.8 °F 56% 30.47 in 10.0 mi NNE 23.0 mph 29.9 mph N/A   Partly Cloudy
10:15 AM 41.0 °F 30.9 °F 24.8 °F 53% 30.47 in 10.0 mi NNE 24.2 mph 31.1 mph N/A   Partly Cloudy
10:35 AM 41.0 °F 30.9 °F 24.8 °F 53% 30.48 in 10.0 mi North 24.2 mph 31.1 mph N/A   Scattered Clouds
10:55 AM 41.0 °F 31.1 °F 24.8 °F 53% 30.48 in 10.0 mi North 23.0 mph 28.8 mph N/A   Overcast
11:15 AM 41.0 °F 31.1 °F 24.8 °F 53% 30.48 in 10.0 mi North 23.0 mph 27.6 mph N/A   Mostly Cloudy
11:35 AM 41.0 °F 30.5 °F 24.8 °F 53% 30.48 in 10.0 mi North 26.5 mph 34.5 mph N/A   Scattered Clouds
11:55 AM 41.0 °F 31.1 °F 24.8 °F 53% 30.47 in 10.0 mi NNE 23.0 mph 29.9 mph N/A   Partly Cloudy
12:15 PM 42.8 °F 33.8 °F 24.8 °F 49% 30.47 in 10.0 mi NNE 21.9 mph 29.9 mph N/A   Clear
12:35 PM 44.6 °F 36.4 °F 24.8 °F 46% 30.46 in 10.0 mi NNE 20.7 mph 28.8 mph N/A   Clear
12:55 PM 44.6 °F 37.4 °F 24.8 °F 46% 30.45 in 10.0 mi North 16.1 mph 26.5 mph N/A   Clear
1:15 PM 44.6 °F 36.4 °F 24.8 °F 46% 30.44 in 10.0 mi North 20.7 mph - N/A   Clear
1:35 PM 44.6 °F 36.4 °F 24.8 °F 46% 30.43 in 10.0 mi North 20.7 mph 26.5 mph N/A   Clear
1:55 PM 46.4 °F 39.2 °F 23.0 °F 40% 30.42 in 10.0 mi NNE 18.4 mph 27.6 mph N/A   Clear
2:15 PM 46.4 °F 39.0 °F 23.0 °F 40% 30.41 in 10.0 mi North 19.6 mph 26.5 mph N/A   Clear
2:55 PM 48.2 °F - 24.8 °F 40% 30.40 in 10.0 mi North 16.1 mph 24.2 mph N/A   Clear
3:15 PM 48.2 °F - 23.0 °F 37% 30.39 in 10.0 mi North 18.4 mph 24.2 mph N/A   Clear
3:35 PM 48.2 °F - 23.0 °F 37% 30.38 in 10.0 mi North 20.7 mph 27.6 mph N/A   Clear
3:55 PM 50.0 °F - 23.0 °F 35% 30.38 in 10.0 mi North 18.4 mph 25.3 mph N/A   Clear
4:15 PM 48.2 °F - 21.2 °F 34% 30.38 in 10.0 mi North 16.1 mph 26.5 mph N/A   Clear
4:35 PM 50.0 °F - 21.2 °F 32% 30.38 in 10.0 mi North 18.4 mph 27.6 mph N/A   Clear
4:55 PM 48.2 °F - 23.0 °F 37% 30.37 in 10.0 mi North 19.6 mph 26.5 mph N/A   Clear
5:15 PM 48.2 °F - 23.0 °F 37% 30.37 in 10.0 mi NNE 17.3 mph 23.0 mph N/A   Clear
5:35 PM 48.2 °F - 23.0 °F 37% 30.37 in 10.0 mi North 17.3 mph 23.0 mph N/A   Clear
5:55 PM 46.4 °F 39.5 °F 23.0 °F 40% 30.37 in 10.0 mi North 17.3 mph 21.9 mph N/A   Clear
6:15 PM 46.4 °F 39.2 °F 23.0 °F 40% 30.37 in 10.0 mi North 18.4 mph 23.0 mph N/A   Clear
6:35 PM 44.6 °F 38.1 °F 23.0 °F 43% 30.38 in 10.0 mi North 13.8 mph - N/A   Clear
6:55 PM 44.6 °F 39.2 °F 23.0 °F 43% 30.39 in 10.0 mi North 10.4 mph - N/A   Clear
7:15 PM 42.8 °F 38.0 °F 23.0 °F 46% 30.40 in 10.0 mi North 8.1 mph - N/A   Clear
7:35 PM 41.0 °F 35.8 °F 23.0 °F 49% 30.40 in 10.0 mi North 8.1 mph - N/A   Clear
7:55 PM 41.0 °F 35.8 °F 23.0 °F 49% 30.40 in 10.0 mi North 8.1 mph - N/A   Clear
8:15 PM 39.2 °F 34.2 °F 23.0 °F 52% 30.41 in 10.0 mi North 6.9 mph - N/A   Clear
8:35 PM 39.2 °F 33.6 °F 23.0 °F 52% 30.41 in 10.0 mi North 8.1 mph - N/A   Clear
8:55 PM 35.6 °F 30.7 °F 21.2 °F 56% 30.41 in 10.0 mi North 5.8 mph - N/A   Clear
9:15 PM 33.8 °F 28.6 °F 19.4 °F 56% 30.41 in 10.0 mi NNW 5.8 mph - N/A   Clear
9:35 PM 32.0 °F 28.7 °F 19.4 °F 60% 30.41 in 10.0 mi NNW 3.5 mph - N/A   Clear
9:55 PM 33.8 °F 29.6 °F 21.2 °F 60% 30.41 in 10.0 mi NNW 4.6 mph - N/A   Clear
10:15 PM 32.0 °F 28.7 °F 21.2 °F 64% 30.41 in 10.0 mi WNW 3.5 mph - N/A   Clear
10:35 PM 30.2 °F 26.7 °F 19.4 °F 64% 30.41 in 10.0 mi NW 3.5 mph - N/A   Clear
10:55 PM 32.0 °F 26.4 °F 21.2 °F 64% 30.41 in 10.0 mi NNW 5.8 mph - N/A   Clear
11:15 PM 32.0 °F 25.6 °F 19.4 °F 60% 30.41 in 10.0 mi NNW 6.9 mph - N/A   Clear
11:55 PM 28.4 °F 19.1 °F 19.4 °F 69% 30.40 in 10.0 mi NNW 10.4 mph - N/A   Clear